• en France
  • Liste des pays
  • À 7 jours
  • Température de l'eau
  • Carte satellitaire
  • Carte météo
  • Widgets météo
  • user-avatar
    Se connecter

    Météo par heure à Selfoss

    Ce jour, 20 Août, Lundi

    Heure Température Précipitation Vent Pression Humidité
    00:00 +9°C° 0,1 mm 2 m/s 759 mmHg 94%
    01:00 +9°C° 0,1 mm 2 m/s 759 mmHg 94%
    02:00 +9°C° 0,1 mm 2 m/s 759 mmHg 94%
    03:00 +9°C° 0,4 mm 3 m/s 759 mmHg 95%
    04:00 +9°C° 0,4 mm 3 m/s 759 mmHg 96%
    05:00 +9°C° 0,4 mm 3 m/s 759 mmHg 96%
    06:00 +9°C° 0,3 mm 3 m/s 759 mmHg 95%
    07:00 +10°C° 0,3 mm 4 m/s 759 mmHg 94%
    08:00 +10°C° 0,3 mm 4 m/s 759 mmHg 93%
    09:00 +10°C° 0,2 mm 4 m/s 758 mmHg 93%
    10:00 +9°C° 0,2 mm 5 m/s 758 mmHg 92%
    11:00 +9°C° 0,2 mm 5 m/s 758 mmHg 91%
    12:00 +9°C° 0,4 mm 5 m/s 758 mmHg 92%
    13:00 +9°C° 0,4 mm 5 m/s 758 mmHg 92%
    14:00 +10°C° 0,4 mm 4 m/s 758 mmHg 92%
    15:00 +10°C° 0,4 mm 4 m/s 757 mmHg 92%
    16:00 +10°C° 0,4 mm 4 m/s 757 mmHg 93%
    17:00 +10°C° 0,4 mm 4 m/s 757 mmHg 93%
    18:00 +10°C° 0,4 mm 4 m/s 757 mmHg 94%
    19:00 +10°C° 0,4 mm 4 m/s 757 mmHg 95%
    20:00 +8°C° 0,4 mm 4 m/s 756 mmHg 96%
    21:00 +9°C° 0,7 mm 3 m/s 756 mmHg 96%
    22:00 +9°C° 0,7 mm 3 m/s 756 mmHg 96%
    23:00 +9°C° 0,7 mm 3 m/s 756 mmHg 96%

    Demain, 21 Août, Mardi

    Heure Température Précipitation Vent Pression Humidité
    00:00 +9°C° 0,6 mm 3 m/s 756 mmHg 96%
    01:00 +9°C° 0,6 mm 3 m/s 755 mmHg 97%
    02:00 +9°C° 0,6 mm 2 m/s 755 mmHg 97%
    03:00 +9°C° 0,7 mm 2 m/s 755 mmHg 96%
    04:00 +9°C° 0,7 mm 2 m/s 755 mmHg 96%
    05:00 +10°C° 0,7 mm 1 m/s 754 mmHg 96%
    06:00 +10°C° 0,7 mm 1 m/s 754 mmHg 95%
    07:00 +10°C° 0,7 mm 1 m/s 754 mmHg 94%
    08:00 +10°C° 0,7 mm 1 m/s 753 mmHg 92%
    09:00 +11°C° 0,5 mm 1 m/s 753 mmHg 91%
    10:00 +11°C° 0,5 mm 1 m/s 753 mmHg 90%
    11:00 +11°C° 0,5 mm 1 m/s 753 mmHg 89%
    12:00 +11°C° 0,2 mm 1 m/s 753 mmHg 87%
    13:00 +12°C° 0,2 mm 2 m/s 752 mmHg 84%
    14:00 +12°C° 0,2 mm 2 m/s 752 mmHg 82%
    15:00 +11°C° 0,2 mm 3 m/s 752 mmHg 82%
    16:00 +11°C° 0,2 mm 3 m/s 751 mmHg 81%
    17:00 +11°C° 0,2 mm 4 m/s 751 mmHg 81%
    18:00 +10°C° 0,2 mm 3 m/s 751 mmHg 84%
    19:00 +9°C° 0,2 mm 3 m/s 751 mmHg 87%
    20:00 +9°C° 0,2 mm 3 m/s 751 mmHg 91%
    21:00 +8°C° 0,1 mm 3 m/s 750 mmHg 92%
    22:00 +8°C° 0,1 mm 3 m/s 750 mmHg 92%
    23:00 +8°C° 0,1 mm 3 m/s 750 mmHg 93%

    Après-demain, 22 Août, Mercredi

    Heure Température Précipitation Vent Pression Humidité
    00:00 +8°C° 0,1 mm 3 m/s 750 mmHg 94%
    01:00 +8°C° 0,1 mm 2 m/s 749 mmHg 94%
    02:00 +7°C° 0,1 mm 2 m/s 749 mmHg 94%
    03:00 +8°C° 0,1 mm 2 m/s 749 mmHg 94%
    04:00 +8°C° 0,1 mm 2 m/s 749 mmHg 94%
    05:00 +8°C° 0,1 mm 2 m/s 748 mmHg 94%
    06:00 +8°C° 0 mm 2 m/s 748 mmHg 90%
    07:00 +9°C° 0 mm 2 m/s 748 mmHg 87%
    08:00 +10°C° 0 mm 2 m/s 748 mmHg 83%
    09:00 +12°C° 0 mm 2 m/s 747 mmHg 78%
    10:00 +13°C° 0 mm 2 m/s 747 mmHg 73%
    11:00 +14°C° 0 mm 2 m/s 747 mmHg 67%
    12:00 +14°C° 0,1 mm 2 m/s 747 mmHg 66%
    13:00 +13°C° 0,1 mm 3 m/s 747 mmHg 65%
    14:00 +14°C° 0,1 mm 3 m/s 747 mmHg 64%
    15:00 +14°C° 0,3 mm 4 m/s 747 mmHg 65%
    16:00 +14°C° 0,3 mm 4 m/s 747 mmHg 66%
    17:00 +13°C° 0,3 mm 4 m/s 747 mmHg 68%
    18:00 +12°C° 0,2 mm 4 m/s 747 mmHg 72%
    19:00 +11°C° 0,2 mm 4 m/s 748 mmHg 76%
    20:00 +10°C° 0,2 mm 4 m/s 748 mmHg 80%
    21:00 +10°C° 0,1 mm 4 m/s 748 mmHg 82%
    22:00 +8°C° 0,1 mm 4 m/s 748 mmHg 84%
    23:00 +8°C° 0,1 mm 4 m/s 749 mmHg 86%

    23 Août, Jeudi

    Heure Température Précipitation Vent Pression Humidité
    00:00 +7°C° 0 mm 4 m/s 749 mmHg 86%
    01:00 +7°C° 0 mm 4 m/s 749 mmHg 86%
    02:00 +7°C° 0 mm 4 m/s 749 mmHg 87%
    03:00 +7°C° 0 mm 4 m/s 750 mmHg 87%
    04:00 +6°C° 0 mm 4 m/s 750 mmHg 87%
    05:00 +6°C° 0 mm 4 m/s 751 mmHg 87%
    06:00 +7°C° 0 mm 4 m/s 751 mmHg 83%
    07:00 +8°C° 0 mm 4 m/s 751 mmHg 78%
    08:00 +11°C° 0 mm 3 m/s 752 mmHg 74%
    09:00 +11°C° 0 mm 3 m/s 752 mmHg 69%
    10:00 +12°C° 0 mm 3 m/s 752 mmHg 65%
    11:00 +13°C° 0 mm 3 m/s 753 mmHg 60%
    12:00 +13°C° 0,1 mm 4 m/s 753 mmHg 60%
    13:00 +14°C° 0,1 mm 4 m/s 753 mmHg 59%
    14:00 +14°C° 0,1 mm 4 m/s 754 mmHg 58%
    15:00 +14°C° 0,3 mm 4 m/s 754 mmHg 61%
    16:00 +14°C° 0,3 mm 5 m/s 754 mmHg 63%
    17:00 +13°C° 0,3 mm 5 m/s 754 mmHg 65%
    18:00 +12°C° 0,1 mm 5 m/s 755 mmHg 69%
    19:00 +10°C° 0,1 mm 5 m/s 755 mmHg 74%
    20:00 +10°C° 0,1 mm 4 m/s 756 mmHg 78%
    21:00 +8°C° 0 mm 4 m/s 756 mmHg 80%
    22:00 +8°C° 0 mm 4 m/s 756 mmHg 82%
    23:00 +7°C° 0 mm 4 m/s 756 mmHg 84%

    24 Août, Vendredi

    Heure Température Précipitation Vent Pression Humidité
    00:00 +7°C° 0 mm 4 m/s 756 mmHg 85%
    01:00 +7°C° 0 mm 3 m/s 756 mmHg 86%
    02:00 +7°C° 0 mm 3 m/s 756 mmHg 86%
    03:00 +7°C° 0 mm 3 m/s 757 mmHg 86%
    04:00 +5°C° 0 mm 3 m/s 757 mmHg 86%
    05:00 +5°C° 0 mm 3 m/s 757 mmHg 86%
    06:00 +7°C° 0 mm 3 m/s 757 mmHg 82%
    07:00 +8°C° 0 mm 3 m/s 757 mmHg 77%
    08:00 +10°C° 0 mm 3 m/s 758 mmHg 72%
    09:00 +11°C° 0 mm 3 m/s 758 mmHg 67%
    10:00 +11°C° 0 mm 4 m/s 758 mmHg 63%
    11:00 +12°C° 0 mm 4 m/s 758 mmHg 58%
    12:00 +13°C° 0 mm 4 m/s 758 mmHg 57%
    13:00 +13°C° 0 mm 5 m/s 758 mmHg 56%
    14:00 +13°C° 0 mm 5 m/s 758 mmHg 55%
    15:00 +13°C° 0 mm 5 m/s 758 mmHg 57%
    16:00 +13°C° 0 mm 5 m/s 758 mmHg 59%
    17:00 +13°C° 0 mm 5 m/s 758 mmHg 61%
    18:00 +10°C° 0 mm 5 m/s 758 mmHg 68%
    19:00 +10°C° 0 mm 4 m/s 759 mmHg 74%
    20:00 +8°C° 0 mm 4 m/s 759 mmHg 80%
    21:00 +8°C° 0 mm 3 m/s 759 mmHg 82%
    22:00 +7°C° 0 mm 3 m/s 759 mmHg 84%
    23:00 +7°C° 0 mm 3 m/s 759 mmHg 87%

    25 Août, Samedi

    Heure Température Précipitation Vent Pression Humidité
    00:00 +5°C° 0 mm 3 m/s 759 mmHg 87%
    01:00 +6°C° 0 mm 2 m/s 759 mmHg 88%
    02:00 +6°C° 0 mm 2 m/s 759 mmHg 88%
    03:00 +5°C° 0 mm 2 m/s 759 mmHg 89%
    04:00 +5°C° 0 mm 2 m/s 759 mmHg 89%
    05:00 +6°C° 0 mm 1 m/s 759 mmHg 90%
    06:00 +7°C° 0 mm 1 m/s 759 mmHg 85%
    07:00 +8°C° 0 mm 1 m/s 759 mmHg 80%
    08:00 +10°C° 0 mm 1 m/s 759 mmHg 76%
    09:00 +11°C° 0 mm 1 m/s 759 mmHg 71%
    10:00 +12°C° 0 mm 2 m/s 759 mmHg 66%
    11:00 +12°C° 0 mm 2 m/s 758 mmHg 62%
    12:00 +12°C° 0 mm 3 m/s 758 mmHg 60%
    13:00 +12°C° 0 mm 3 m/s 758 mmHg 59%
    14:00 +12°C° 0 mm 3 m/s 758 mmHg 58%
    15:00 +12°C° 0 mm 4 m/s 757 mmHg 59%
    16:00 +11°C° 0 mm 4 m/s 757 mmHg 61%
    17:00 +11°C° 0 mm 4 m/s 757 mmHg 62%
    18:00 +10°C° 0 mm 4 m/s 756 mmHg 68%
    19:00 +8°C° 0 mm 4 m/s 756 mmHg 74%
    20:00 +7°C° 0 mm 4 m/s 756 mmHg 80%
    21:00 +7°C° 0 mm 4 m/s 756 mmHg 82%
    22:00 +7°C° 0 mm 5 m/s 755 mmHg 84%
    23:00 +7°C° 0 mm 5 m/s 755 mmHg 87%
    Voir plus